Cloud_Cover
5 2 0 0 0 96 100 100 100 100 100 92 92 100 100 100 100 100 100 100 100 100 100 100 100 100 83 90 18 5 5 5 0 0 15 21 55 0 0 0 4 48 100 100
13 6 0 0 0 2 31 100 100 100 100 100 88 15 7 13 100 100 100 100 100 100 100 100 100 100 99 82 12 5 5 5 6 32 69 78 100 89 2 0 0 1 95 37
44 55 4 5 0 3 5 89 100 100 100 100 100 100 100 100 100 100 100 100 100 84 31 32 19 5 5 5 5 5 11 14 56 82 99 87 100 100 70 3 0 0 0 28
100 100 93 5 4 0 0 3 3 85 100 100 100 100 100 100 100 100 100 96 83 29 5 5 5 5 5 5 5 23 98 100 99 98 98 100 100 100 100 100 28 1 0 0
100 100 41 5 9 38 14 2 5 50 100 100 100 100 100 100 100 87 5 5 5 5 5 5 13 37 26 15 75 100 100 100 100 100 100 100 100 100 100 100 100 21 0 0
100 100 25 5 18 100 100 62 62 100 100 98 100 100 100 100 98 29 8 5 93 32 49 6 82 100 82 80 68 100 100 100 100 100 100 100 100 100 100 100 100 100 53 0
98 40 64 38 95 100 100 100 100 100 100 100 100 100 100 98 20 7 7 72 100 100 100 30 100 100 100 89 100 100 100 100 100 100 100 100 100 100 100 100 100 100 96 44
100 100 100 100 99 93 100 100 100 100 26 14 63 26 41 11 5 5 69 100 100 100 100 10 100 100 100 100 100 100 100 100 100 100 100 100 100 100 100 100 100 100 100 100
100 100 100 100 100 100 100 100 76 63 70 5 6 84 98 42 5 5 33 6 5 98 100 80 5 100 81 99 100 95 100 100 100 100 100 100 100 100 100 100 100 100 100 99
100 100 100 100 100 100 100 100 93 100 95 62 7 35 34 55 14 5 5 10 10 100 92 100 5 7 7 17 100 100 96 100 100 100 100 100 100 100 100 100 100 100 100 100
100 100 100 100 100 100 100 96 90 100 100 86 48 30 100 6 5 5 5 5 5 5 21 100 5 69 6 36 100 100 98 94 80 100 100 100 100 100 100 100 100 100 100 100
100 100 100 100 100 100 100 100 100 100 100 56 6 39 100 42 12 18 17 5 5 5 10 69 5 5 48 88 100 100 100 100 100 100 100 100 100 100 100 100 100 100 100 100
100 100 100 100 100 100 100 100 100 100 100 47 64 67 40 17 63 42 5 76 19 5 5 5 5 9 87 100 100 100 100 100 97 100 100 100 100 100 100 100 100 100 100 100
100 100 100 100 100 100 100 100 100 97 100 100 86 85 100 89 79 100 100 16 5 5 53 48 5 9 100 100 100 100 100 95 95 100 100 100 100 100 100 100 100 100 100 100
100 100 100 100 100 100 100 100 100 100 100 50 22 15 12 84 100 78 9 20 5 13 93 39 47 63 80 100 100 100 100 100 99 100 100 100 100 100 100 100 100 100 100 100
100 100 100 100 100 100 100 100 100 100 75 100 98 100 100 100 79 80 30 11 10 20 99 65 100 52 63 100 100 100 86 99 89 100 100 100 100 100 100 100 100 100 100 100
100 100 100 100 100 100 100 100 100 100 100 100 100 100 100 92 97 78 5 5 5 5 5 89 100 8 94 100 100 100 95 84 71 100 100 100 100 100 100 100 100 100 100 100
100 100 100 100 100 97 100 100 100 100 100 100 100 100 100 100 99 6 5 5 5 5 5 80 90 5 94 83 100 100 100 91 90 58 100 100 100 100 100 100 100 100 100 100
100 100 100 100 80 90 100 100 100 100 100 100 100 100 100 71 8 52 24 5 5 5 8 89 79 77 97 7 62 100 87 100 88 90 85 100 100 100 100 100 100 100 100 100
100 100 100 100 100 100 100 100 100 100 100 100 100 99 5 12 95 80 78 5 5 5 57 89 70 77 81 5 5 9 96 98 98 97 93 100 100 100 100 100 100 100 100 100
100 100 100 100 100 100 100 100 100 100 100 100 62 5 5 5 5 5 22 5 5 5 5 5 5 28 45 8 5 68 82 99 90 41 72 88 100 100 100 100 100 100 100 100
100 100 100 100 100 100 100 100 100 100 100 10 5 5 5 5 5 5 5 5 5 5 5 5 5 5 5 5 31 96 100 93 41 5 26 16 100 100 100 100 100 100 100 100
100 100 100 100 100 100 100 100 100 100 63 6 5 5 5 5 5 5 5 5 5 5 5 5 5 5 5 5 66 86 98 93 12 5 85 63 99 100 100 100 100 100 100 100
100 100 100 100 100 100 100 100 72 5 5 1 1 5 5 5 5 5 5 5 5 5 5 5 8 11 10 5 5 90 97 40 5 61 14 100 96 66 100 100 100 100 100 100
100 97 100 100 100 100 100 74 5 5 5 5 5 5 5 5 5 5 5 5 5 5 5 5 64 72 46 5 5 5 46 20 35 71 5 72 100 54 14 63 100 100 100 100
100 98 100 100 100 81 61 10 6 5 5 5 5 5 5 5 5 5 5 5 5 5 5 5 5 5 5 5 5 5 5 85 5 26 8 7 11 89 93 71 24 98 100 100